Weather in Gabukay

Russia / Republic of Adygea     44°55′41″N   39°33′53″E
temp.,
°C
wind,
m/s
gust,
m/s
humid.,
%
clouds,
%
prec.,
mm/h
press.,
hPa
HPBL,
m
16 may, sun
sun1600:00+18ene11900 0.0 101112
03:00+17nne229344 1.1 101114
06:00+17ene23958 0.0 101092
09:00+22ene2486100 0.0 1009520
12:00+26ene4672100 0.0 1006989
15:00+27ene5769100 0.0 10051174
18:00+25ne488018 0.0 1003346
21:00+21ene411934 0.0 1002205
17 may, mon
mon1700:00+19sse12915 0.0 100211
03:00+18w388894 0.0 1003148
06:00+17wsw41089100 0.3 1005290
09:00+19wsw51077100 0.4 1006515
12:00+23wsw4767100 1.3 1008782
15:00+21w3781100 2.8 1008305
18:00+21ssw1281100 1.2 1009153
21:00+17sw3488100 1.9 101169
18 may, tue
tue1800:00+15wsw3789100 0.3 1011168
03:00+14wsw3494100 0.3 1011120
06:00+14sw2592100 0.0 1012173
09:00+18sw357896 0.0 1012571
12:00+22wsw676282 0.0 10111256
15:00+22wsw57602 0.0 10111169
18:00+20w4773100 0.0 1011254
21:00+17sw227482 0.0 101118
19 may, wed
wed1900:00+15ssw2289100 0.0 101133
03:00+15sw6139493 0.6 1013582
06:00+14sw510951 1.4 1014348
09:00+18sw68770 2.2 1016834
12:00+20wsw68611 0.2 10171517
15:00+21sw78613 0.2 10171815
18:00+19wsw47700 0.0 1017294
21:00+14se11800 0.0 101713
20 may, thu
thu2000:00+12e22860 0.0 101713
03:00+11e46910 0.0 101588
06:00+13e411910 0.0 1014268
09:00+19e79760 0.0 1012561
12:00+24e67645 0.0 1011842
15:00+26e6866100 0.0 1009963
18:00+23e713775 0.0 1007469
21:00+20e6148169 0.0 1006365